Location: Newark
(25.4800°N, 85.7200°E)
Time: 16:02:08
(UTC+00:00)

Transit 4A - Pass Details

Date: 27 August 2019
Orbit: 865 x 980 km, 66.8° (Epoch: 17 September)

Event Time Altitude Azimuth Distance (km) Brightness Sun altitude
Rises 20:47:13 0° 337° (NNW) 3,579 11.1 -39.4°
Enters shadow 20:48:55 - 338° (NNW) 2,941 10.7 -39.1°
Reaches altitude 10° 20:49:47 10° 339° (NNW) 2,616 - -38.9°
Maximum altitude 20:55:52 83° 67° (ENE) 909 - -37.9°
Drops below altitude 10° 21:01:44 10° 155° (SSE) 2,532 - -36.8°
Sets 21:04:11 0° 156° (SSE) 3,456 - -36.4°
